{"data":{"norad_id":48217,"intl_designator":"2021-031H","name":"ONEWEB-0189","alt_names":[],"object_type":"PAYLOAD","status":"ACTIVE","operator":null,"country":"UK","launch_date":"2021-04-25","launch_site_code":"VOSTO","launch_vehicle":null,"mission":null,"orbit_class":"UNKNOWN","rcs_meters":null,"size_class":null,"mass_kg":null,"dimensions":null,"purposes":["comms"],"wikipedia_slug":null,"has_3d_model":false,"image_url":null,"decayed_at":null,"tle_current":{"epoch":"2026-09-20T00:07:47.407584Z","epoch_age_seconds":61039,"freshness":"FRESH","line1":"1 48217U 21031H   26263.00540981  .00000177  00000+0  44242-3 0  9998","line2":"2 48217  87.8904 270.7891 0001569  87.4405 272.6905 13.14501929260681","mean_motion":13.14501929,"eccentricity":0.0001569,"inclination_deg":87.8904,"raan_deg":270.7891,"arg_perigee_deg":87.4405,"mean_anomaly_deg":272.6905,"bstar":0.00044242,"rev_number":26068,"period_min":109.54719565117,"perigee_km":1204.6037860319,"apogee_km":1206.983623487,"semimajor_km":7583.9307047594,"source":"CELESTRAK","updated_at":"2026-09-20T09:00:44.593593Z"}}}